QZS-3 (MICHIBIKI-3)

Last updated on Wed Sep 17 2025 00:02:49 GMT+0000 (Coordinated Universal Time)

1 42917U 17048A 25259.61327860 -.00000367 00000+0 00000+0 0 9994 2 42917 0.0571 200.5831 0002107 357.9642 145.0998 1.00271377 29514
UTC large
Height (km)
Speed (km/s)
/
Latitude / Longitude
Inclination (degrees)
Orbital Period (minutes)
Azimuth
Elevation
Range (km)
Doppler Factor

Next 0 passes for location: London (51.5072 / 0.1276)

Sorry there are no passes over London.